Hourly Data Report for April 18, 2020

TORONTO CITY
ONTARIO
Current Station Operator: ECCC - MSC

43°40'00.000" N
79°24'00.000" W
112.50 m
6158355
71508
XTO

Download Data

Hourly Data (April 2020)
Hourly Data Report for April 18, 2020
TIME
LST
Temp Definition
°C
Dew Point Definition
°C
Rel Hum Definition
%
Precip. Amount Definition
mm

Wind Dir Definition
10's deg

Wind Spd Definition
km/h
Visibility Definition
km
Stn Press Definition
kPa
Hmdx Definition


Wind Chill Definition


Weather Definition


00:00 1.5 -2.9 73 0.0       99.89     LegendNANA
01:00 1.4 -2.9 73 0.0       99.85     LegendNANA
02:00 1.4 -3.2 71 0.0       99.84     LegendNANA
03:00 0.8 -3.2 74 0.0       99.86     LegendNANA
04:00 0.3 -3.1 78 0.0       99.88     LegendNANA
05:00 -0.4 -3.5 80 0.0       99.87     LegendNANA
06:00 -0.4 -3.0 82 0.0       99.94     LegendNANA
07:00 1.1 -2.9 75 0.0       100.01     LegendNANA
08:00 3.1 -3.2 63 0.0       100.06     LegendNANA
09:00 5.0 -4.4 51 0.0       100.06     LegendNANA
10:00 6.0 -4.0 49 0.0       100.09     LegendNANA
11:00 6.2 -3.7 49 0.3       100.06     LegendNANA
12:00 5.7 -3.2 53 0.3       99.95     LegendNANA
13:00 8.1 -2.7 46 0.0       99.85     LegendNANA
14:00 10.3 -5.3 33 0.3       99.76     LegendNANA
15:00 8.9 -2.4 45 0.2       99.69     LegendNANA
16:00 8.0 -0.4 55 0.2       99.66     LegendNANA
17:00 7.9 -0.1 57 0.0       99.61     LegendNANA
18:00 8.3 -1.0 52 0.0       99.56     LegendNANA
19:00 7.5 -1.2 54 0.0       99.54     LegendNANA
20:00 7.2 -1.1 56 0.0       99.55     LegendNANA
21:00 6.7 -0.6 60 0.0       99.54     LegendNANA
22:00 6.6 -1.1 58 0.0       99.46     LegendNANA
23:00 6.1 -0.1 64 0.0       99.45     LegendNANA

Notes on Data Quality.

Legend

  • E = Estimated
  • M = Missing
  • NA = Not Available*
  • [empty] = Indicates an unobserved value
Date modified: